Regional Weather Roundup
Issued by NWS Charleston, SC

Home | Current Version | Previous Version | Text Only | Print | Product List | Glossary On
Versions: 1 2 3 4 5 6 7 8 9 10 11 12 13 14 15 16 17 18 19 20 21 22 23 24 25 26 27 28 29 30 31 32 33 34 35 36 37 38 39 40 41 42 43 44 45 46 47 48 49 50
000
ASUS42 KCHS 230625
RWRCHS

REGIONAL WEATHER ROUNDUP
NATIONAL WEATHER SERVICE CHARLESTON SC
200 AM EDT TUE SEP 23 2014

NOTE: "FAIR" INDICATES FEW OR NO CLOUDS BELOW 12,000 FEET WITH NO
SIGNIFICANT WEATHER AND/OR OBSTRUCTIONS TO VISIBILITY.

NOT ALL STATIONS ARE QUALITY CONTROLLED BY THE NATIONAL
WEATHER SERVICE. USE DATA WITH CAUTION...ESPECIALLY
DEWPOINT OBSERVATIONS.

SCZ027-030-031-034>040-042>050-230700-
...SOUTH CAROLINA...

CITY           SKY/WX    TMP DP  RH WIND       PRES   REMARKS
N CHARLESTON   MOCLDY    69  65  86 NE8       30.09F
6HR MIN TEMP:  69; 6HR MAX TEMP:  71; 6HR PCP:  0.03;

WATERFRONT PRK NOT AVBL
FORT JOHNSON   NOT AVBL
MOUNT PLEASANT MOCLDY    66  66 100 N6        30.08F FOG
JOHNS ISLAND   CLEAR     70  70 100 N7        30.08F
PINOPOLIS        N/A     70  64  83 NE8       30.02F
MONCKS CORNER    N/A     68  66  94 CALM      30.10F
SUMMERVILLE    MOCLDY    64  64 100 N5        30.10F
BEAUFORT MCAS  CLOUDY    69  61  75 MISG      30.05F
6HR MIN TEMP:  68; 6HR MAX TEMP:  70; 6HR PCP:  0.02;

BEAUFORT ARPT  FAIR      70  63  78 NE9G16    30.05S
HILTON HEAD IS DRIZZLE   72  63  73 N9        30.06F
GEORGETOWN     NOT AVBL
WALTERBORO     CLOUDY    68 N/A N/A N5        30.08S
ORANGEBURG     LGT RAIN  64  60  87 E7        30.09S
6HR MIN TEMP:  64; 6HR MAX TEMP:  65; 6HR PCP:  0.17;

BARNWELL       LGT RAIN  64  64 100 E7        30.08F
AIKEN          CLOUDY    64  64 100 NE6       30.14S
MANNING        MOCLDY    64 N/A N/A NE3       30.10F
KINGSTREE      NOT AVBL
COLUMBIA       CLOUDY    66  60  81 CALM      30.10S
6HR MIN TEMP:  65; 6HR MAX TEMP:  70; 6HR PCP:  0.02;

SUMTER         LGT RAIN  64  61  92 NE8       30.10F
6HR MIN TEMP:  64; 6HR MAX TEMP:  66; 6HR PCP:  0.06;

FLORENCE       LGT RAIN  65  61  87 NE3       30.13S
6HR MIN TEMP:  65; 6HR MAX TEMP:  69; 6HR PCP:  0.07;

MYRTLE BEACH   CLOUDY    66  61  82 N13       30.10F
N MYRTLE BEACH CLOUDY    66  63  90 N7        30.11S
6HR MIN TEMP:  66; 6HR MAX TEMP:  68; 6HR PCP:  0.07;


$$

GAZ063-065-086>088-099>101-113>116-118-119-134-136>141-150-230700-
...GEORGIA...

CITY           SKY/WX    TMP DP  RH WIND       PRES   REMARKS
SAVANNAH ARPT  CLOUDY    68  61  78 NE7       30.05
6HR MIN TEMP:  68; 6HR MAX TEMP:  71; 6HR PCP:  0.05;

HUNTER AAF     CLOUDY    69  62  79 NE3       30.02F
6HR MIN TEMP:  68; 6HR MAX TEMP:  71; 6HR PCP:  0.26;

FORT STEWART   CLOUDY    67  63  87 NE2       30.03F
6HR MIN TEMP:  67; 6HR MAX TEMP:  71; 6HR PCP: TRACE;

STATESBORO     NOT AVBL
SYLVANIA       CLOUDY    69  68  98 N6        30.07F
CLAXTON        HVY RAIN  68  68 100 N5        30.06F
THOMSON        MOCLDY    65  65 100 NE3       30.14F
AUGUSTA-BUSH   CLOUDY    66  62  87 N6        30.09F
6HR MIN TEMP:  64; 6HR MAX TEMP:  66; 6HR PCP: TRACE;

AUGUSTA-DANIEL CLOUDY    68  61  78 N6        30.10F
SWAINSBORO     DRIZZLE   68  68 100 CALM      30.08S
VIDALIA        RAIN      64  64 100 E10       30.07R
ALMA           CLOUDY    69  64  84 E5        30.04S
6HR MIN TEMP:  69; 6HR MAX TEMP:  75;

WAYCROSS       CLOUDY    73  67  82 E8        30.04F
JESUP          CLOUDY    70  68  94 CALM      30.04F
BRUNSWICK      CLOUDY    72  64  78 NE7       30.04F
SAINT SIMONS   CLOUDY    72  67  84 NE14      30.02F
6HR MIN TEMP:  70; 6HR MAX TEMP:  78; 6HR PCP:  0.22;


$$

SCZ027-028-034-036>038-045-046-048>050-GAZ119-141-230700-
...LAKE AND SUPPLEMENTAL COASTAL OBSERVATIONS...

STATION/POSITION TIME  TEMP    WIND        PRES    WAVE   SWELL
                       AIR SEA DIR/SP/G            HT/PER HT/PER/DIR
                 (UTC) (F)     (DEG/KT/KT) (MB)    (FT/S) (FT/S/D)
UPR LAKE MARION  NOT AVBL
WINYAH BAY       0600   67     330/  6     1019.0S
LAKE MURRAY      0500   66      CALM  /  3 1019.6R
ACE BASIN NERRS  0600   66      40/  3     1018.0S
FORT PULASKI     0600   73      30/ 11/ 14 1017.4S
SAPELO ISLAND    0600   71      50/  9     1017.0S

$$

ANZ835-935-AMZ111-154-330-350-352-354-374-450-454-472-230700-
...C-MAN AND BUOY OBSERVATIONS...

STATION/POSITION TIME  TEMP    WIND        PRES    WAVE   SWELL
                       AIR SEA DIR/SP/G            HT/PER HT/PER/DIR
                 (UTC) (F)     (DEG/KT/KT) (MB)    (FT/S) (FT/S/D)
FOLLY BEACH CMAN 0600   69     340/ 10/ 14 1018.7F
BUOY 41004       0600   78 82   50/ 14/ 16 1016.6F   3/ 7   2/ 7
BUOY 41008       0600   76 82   50/ 21/ 25 1016.8F   6/ 5
5E ST. MARYS GA  0600      83                N/A     3/ 5
FRYING PAN BUOY  NOT AVBL
BUOY 41025       0600   73      20/ 17/ 21 1019.7R   4/ 6   2/ 60/10
CAPE LOOKOUT NC  0600   74      40/ 16/ 17 1019.6R
BUOY 41002       0515   79 81  120/  4/  4 1018.8    3/ 8   3/110/ 8
BUOY 41010       0600   78 84  340/  2/  4 1016.9R   2/ 7   2/ 90/ 7
BUOY 41012       NOT AVBL
ST AUGUSTINE FL  0600   77     170/  1/  2 1016.7S
CAPERS NEARSHORE 0500   69     350/ 12/ 16   N/A
FRIPP NEARSHORE  NOT AVBL


$$



USA.gov is the U.S. government's official web portal to all federal, state and local government web resources and services.